User: anonymous   Login
Location: Unspecified
(0.0000°N, 0.0000°E)
Time: 03:44:16
(UTC+02:00)
Language:

Centaur D-1AR AC-41 - Orbit

View from above orbital plane
View from above orbital plane
View from above satellite
View from above satellite

Ground track
Ground track

The orbit data is extracted from the following two-line orbital elements,

1 10976U 78068B   16151.67542091 -.00000143 +00000-0 -19573-2 0  9997
2 10976 021.8396 334.9961 7171321 023.3579 006.0097 02.22309056304570
Epoch (UTC): 30 May 2016 16:12:36
Eccentricity: 0.7171321
inclination: 21.8396°
perigee height: 636 km
apogee height: 36204 km
right ascension of ascending node: 334.9961°
argument of perigee: 23.3579°
revolutions per day: 2.22309056
mean anomaly at epoch: 6.0097°
orbit number at epoch: 30457

The dashed part of the orbit path shows where the satellite is in the earth's shadow,  

DLR